星链-30906 (STARLINK-30906 )

导读

STARLINK-30906是美国SpaceX公司星链(Starlink)星座中的一颗低轨通信卫星,于北京时间2023年11月22日08:00发射升空。星链计划旨在全球范围内提供低延迟高速宽带互联网服务,尤其覆盖基础设施匮乏的偏远地区。该卫星采用平板设计,配备氪工质霍尔推进器,具备自主避撞能力,寿命末期会主动离轨再入大气层烧毁,减少空间碎片影响。

Basic Information
目录编号:
58408
目录名称:
STARLINK-30906
国际标识:
2023-180G
轨道中心:
EARTH
卫星名称:
星链-30906
卫星全名:
星链-30906 (STARLINK-30906 )
卫星状态:
在轨 (已飞行1017 天)
发射日期:
2023-11-22 UTC
国别 :
美国 (US)
星等 :
--
Orbit Information
数据来源 国际轨道数据
星历时间: 2026-09-04T00:38:36+0800
15小时前
查看轨道信息
半长轴: 6861.179km
偏心率: 0.0001406
轨道倾角: 43.002°
近地点辐角 268.016°
升交点赤经 131.013°
平近点角 92.053°
近地点: 482.077km
远地点: 484.007km
周期: 94.267分钟
每日圈数: 15.275825
Detailed Information
固有亮度:
5
最大亮度:
0.3
卫星平台:
Starlink v2.0 mini
覆盖范围:
全球
运营商:
太空探索技术公司
运营商所在国:
美国
制造商(研发单位):
太空探索技术公司
制造商所在国:
美国
使用方式:
暂无
Satellite Introduction
星链(Starlink)计划是由太空探索技术公司(SpaceX)提出的一个巨型低轨卫星互联网星座项目,计划在2019年至2024年间在太空搭建由约1.2万颗卫星组成的“星链”网络,其中1584颗将部署在地球上空550千米处的近地轨道,并从2020年开始工作。该卫星仍在工作。
2D Orbit Map
3D Orbit Map
Orbit Altitude Analysis Chart
Orbit Inclination Analysis Chart
Orbit Comprehensive Analysis Chart
View Comprehensive Chart
Conjunction Data List
Event ID Objects TCA Miss Dist (km) Collision Risk Probability Collision Risk Index (CRI) Action
CDM_260902-224505-511205-840825
2026-09-02T
22:45:40+0000
1.436 km
极远距离
7.486837E-6 低风险 0.52
CDM_260904-132505-840805-912122
2026-09-04T
13:25:41+0000
2.869 km
极远距离
1.246613E-6 低风险 0.37
CDM_260905-032305-840806-358121
2026-09-05T
03:23:29+0000
2.525 km
极远距离
1.17249E-6 低风险 0.36